Location: Castiglione Fibocchi
(43.5333°N, 11.7667°E)
Time: 17:29:16
(UTC+00:00)

Cosmos 2266 Rocket - Pass Details

Date: 15 August 2020
Orbit: 934 x 1008 km, 82.9° (Epoch: 18 September)

Event Time Altitude Azimuth Distance (km) Brightness Sun altitude
Rises 00:28:30 0° 355° (N) 3,720 8.0 -30.3°
Reaches altitude 10° 00:31:07 10° 360° (N) 2,758 7.2 -30.1°
Maximum altitude 00:37:20 57° 78° (ENE) 1,143 4.4 -29.7°
Enters shadow 00:38:23 50° 115° (ESE) 1,216 4.4 -29.6°
